EW2546 Weather Reports


Display with metric or nautical units.
time (UTC)temp
F
wind
direction
speed
MPH
gust
MPH
rain 1hr
in
rain 24hr
in
rain mn
in
humidity
%
barometer
mb
20260506084558 52 0 0.0 0.0 0.00 0.00 0.00 85 1009.1
20260506084029 52 0 0.0 0.0 0.00 0.00 0.00 85 1009.1
20260506083526 52 0 0.0 0.0 0.00 0.00 0.00 85 1009.0
20260506083041 52 0 0.0 0.0 0.00 0.00 0.00 84 1008.9
20260506082526 52 0 0.0 1.0 0.00 0.00 0.00 84 1009.0
20260506082027 52 0 0.0 1.0 0.00 0.00 0.00 83 1009.0
20260506081542 52 0 0.0 1.0 0.00 0.00 0.00 83 1008.9
20260506081026 52 0 0.0 2.0 0.00 0.00 0.00 84 1008.9
20260506080526 52 0 0.0 2.0 0.00 0.00 0.00 84 1009.0
20260506073526 52 0 0.0 0.0 0.00 0.00 0.00 84 1009.0
20260506073051 52 0 0.0 0.0 0.00 0.00 0.00 84 1008.8
20260506072525 52 0 0.0 0.0 0.00 0.00 0.00 84 1008.8
20260506072027 52 0 0.0 0.0 0.00 0.00 0.00 84 1008.9
20260506071543 52 0 0.0 2.0 0.00 0.00 0.00 84 1008.6
20260506071029 52 0 0.0 2.0 0.00 0.00 0.00 84 1008.6
20260506070526 52 0 0.0 2.0 0.00 0.00 0.00 85 1008.5
20260506062023 51 0 0.0 0.0 0.00 0.00 0.00 85 1008.4
20260506061547 51 0 0.0 0.0 0.00 0.00 0.00 85 1008.1
20260506061026 51 0 0.0 0.0 0.00 0.00 0.00 85 1008.2
20260506060532 51 0 0.0 0.0 0.00 0.00 0.00 85 1008.4
20260506051025 52 0 0.0 0.0 0.00 0.00 0.00 83 1008.5
20260506050529 52 0 0.0 0.0 0.00 0.00 0.00 82 1008.5
20260506045028 53 0 0.0 0.0 0.00 0.00 0.00 82 1008.3
20260506044545 53 0 0.0 0.0 0.00 0.00 0.00 81 1008.2
20260506044026 53 0 0.0 0.0 0.00 0.00 0.00 81 1008.3
20260506043522 53 0 0.0 1.0 0.00 0.00 0.00 81 1008.3
20260506043042 53 0 0.0 1.0 0.00 0.00 0.00 81 1008.5
20260506042527 53 0 0.0 0.0 0.00 0.00 0.00 80 1008.4
20260506042026 53 0 0.0 0.0 0.00 0.00 0.00 80 1008.4
20260506041538 54 0 0.0 0.0 0.00 0.00 0.00 80 1008.5
20260506041026 54 0 0.0 0.0 0.00 0.00 0.00 79 1008.5
20260506040526 54 0 0.0 0.0 0.00 0.00 0.00 79 1008.3
20260506040043 54 0 0.0 0.0 0.00 0.00 0.00 79 1008.1
20260506035527 54 0 0.0 0.0 0.00 0.00 0.00 79 1008.0
20260506035028 54 0 0.0 0.0 0.00 0.00 0.00 78 1008.0
20260506034541 54 0 0.0 1.0 0.00 0.00 0.00 78 1008.0
20260506034027 55 0 0.0 1.0 0.00 0.00 0.00 78 1007.9
20260506033525 55 0 0.0 1.0 0.00 0.00 0.00 78 1007.8
20260506033038 55 0 0.0 1.0 0.00 0.00 0.00 77 1007.8
20260506032525 55 0 0.0 0.0 0.00 0.00 0.00 77 1007.8
20260506032023 56 0 0.0 0.0 0.00 0.00 0.00 78 1007.8
20260506031545 56 0 0.0 0.0 0.00 0.00 0.00 78 1007.9
20260506031025 56 0 0.0 0.0 0.00 0.00 0.00 77 1008.0
20260506030524 56 0 0.0 1.0 0.00 0.00 0.00 77 1007.8
20260506030042 57 0 0.0 1.0 0.00 0.00 0.00 76 1008.0
20260506025526 57 0 0.0 1.0 0.00 0.00 0.00 76 1008.0
20260506025025 57 0 0.0 1.0 0.00 0.00 0.00 76 1008.0
20260506024551 58 0 0.0 1.0 0.00 0.00 0.00 76 1008.1
20260506024026 58 0 0.0 0.0 0.00 0.00 0.00 75 1008.3
20260506023527 58 0 0.0 0.0 0.00 0.00 0.00 76 1008.1
20260506023036 59 0 0.0 0.0 0.00 0.00 0.00 76 1008.3
20260506022526 59 0 0.0 0.0 0.00 0.00 0.00 74 1008.2
20260506022025 59 0 0.0 1.0 0.00 0.00 0.00 75 1008.2
20260506021538 59 0 0.0 1.0 0.00 0.00 0.00 75 1008.1
20260506021025 59 0 0.0 0.0 0.00 0.00 0.00 74 1008.1
20260506020525 59 0 0.0 0.0 0.00 0.00 0.00 75 1008.1
20260506020038 59 0 0.0 0.0 0.00 0.00 0.00 74 1008.1
20260506015529 59 0 0.0 0.0 0.00 0.00 0.00 75 1008.3
20260506015025 59 0 0.0 0.0 0.00 0.00 0.00 74 1008.2
20260506014542 59 0 0.0 0.0 0.00 0.00 0.00 74 1008.2
20260506014028 60 0 0.0 0.0 0.00 0.00 0.00 75 1008.1
20260506013524 60 0 0.0 0.0 0.00 0.00 0.00 74 1008.1
20260506013047 60 0 0.0 0.0 0.00 0.00 0.00 74 1008.3
20260506012526 60 0 0.0 0.0 0.00 0.00 0.00 71 1008.3
20260506012024 61 0 0.0 0.0 0.00 0.00 0.00 70 1008.2
20260506011539 61 0 0.0 0.0 0.00 0.00 0.00 70 1008.2
20260506011027 61 0 0.0 0.0 0.00 0.00 0.00 70 1008.3
20260506010526 61 0 0.0 0.0 0.00 0.00 0.00 69 1008.1
20260506010038 61 0 0.0 0.0 0.00 0.00 0.00 70 1008.2
20260506005525 61 0 0.0 4.0 0.00 0.00 0.00 69 1008.0
20260506005025 61 0 0.0 4.0 0.00 0.00 0.00 69 1007.9
20260506004536 61 0 0.0 4.0 0.00 0.00 0.00 69 1007.8
20260506004025 62 0 0.0 2.0 0.00 0.00 0.00 69 1007.9
20260506003525 62 0 0.0 3.0 0.00 0.00 0.00 71 1007.6
20260506003035 62 0 0.0 3.0 0.00 0.00 0.00 71 1007.6
20260506002524 62 0 0.0 3.0 0.00 0.00 0.00 75 1007.3
20260506002025 62 0 0.0 0.0 0.00 0.00 0.00 74 1006.8
20260506001543 62 0 0.0 0.0 0.00 0.00 0.00 74 1006.5
20260506001025 63 0 0.0 0.0 0.00 0.00 0.00 73 1006.5
20260506000527 63 0 0.0 0.0 0.00 0.00 0.00 72 1006.0
20260506000042 63 0 0.0 0.0 0.00 0.00 0.00 70 1005.9
20260505235528 64 0 0.0 0.0 0.00 0.00 0.00 68 1005.9
20260505235026 64 0 0.0 0.0 0.00 0.00 0.00 67 1006.5
20260505234538 64 0 0.0 0.0 0.00 0.00 0.00 67 1006.5
20260505234026 64 0 0.0 0.0 0.00 0.00 0.00 66 1006.9
20260505233525 64 0 0.0 0.0 0.00 0.00 0.00 65 1006.8
20260505233038 65 0 0.0 2.0 0.00 0.00 0.00 64 1006.7
20260505232525 65 0 0.0 3.0 0.00 0.00 0.00 63 1006.7
20260505232033 65 0 0.0 10.0 0.00 0.00 0.00 62 1006.9
20260505231544 65 0 0.0 10.0 0.00 0.00 0.00 61 1006.9
20260505231024 65 280 1.0 10.0 0.00 0.00 0.00 60 1006.8
20260505230524 64 195 2.0 12.0 0.00 0.00 0.00 60 1006.7
20260505230042 64 239 3.0 12.0 0.00 0.00 0.00 61 1006.5
20260505225525 64 0 2.0 8.0 0.00 0.00 0.00 60 1005.1
20260505225025 64 180 0.0 8.0 0.00 0.00 0.00 61 1004.7
20260505224540 64 160 0.0 8.0 0.00 0.00 0.00 60 1004.6
20260505224025 64 0 3.0 7.0 0.00 0.00 0.00 60 1004.4
20260505223525 64 139 1.0 11.0 0.00 0.00 0.00 60 1004.4
20260505223039 65 0 2.0 18.0 0.00 0.00 0.00 59 1004.3
20260505222524 65 199 3.0 18.0 0.00 0.00 0.00 58 1004.4
20260505222026 65 172 5.0 18.0 0.00 0.00 0.00 57 1004.3
20260505221540 66 181 5.0 16.0 0.00 0.00 0.00 57 1004.2
20260505221025 66 274 6.0 16.0 0.00 0.00 0.00 57 1004.3
20260505220526 66 192 5.0 18.0 0.00 0.00 0.00 57 1004.2
20260505220041 66 221 7.0 18.0 0.00 0.00 0.00 56 1004.0
20260505215526 67 155 5.0 17.0 0.00 0.00 0.00 55 1004.0
20260505215025 67 216 5.0 17.0 0.00 0.00 0.00 55 1004.1
20260505214559 67 249 6.0 17.0 0.00 0.00 0.00 55 1004.0
20260505214025 67 149 3.0 20.0 0.00 0.00 0.00 56 1004.1
20260505213524 67 161 6.0 20.0 0.00 0.00 0.00 56 1004.0
20260505213035 67 129 7.0 20.0 0.00 0.00 0.00 55 1004.0
20260505212525 67 268 2.0 12.0 0.00 0.00 0.00 56 1003.9
20260505212029 68 139 3.0 16.0 0.00 0.00 0.00 55 1004.0
20260505211541 68 232 4.0 16.0 0.00 0.00 0.00 55 1004.0
20260505211025 69 155 4.0 12.0 0.00 0.00 0.00 53 1004.0
20260505210524 69 205 4.0 12.0 0.00 0.00 0.00 53 1003.7
20260505210042 69 168 5.0 12.0 0.00 0.00 0.00 53 1003.7
20260505205524 70 137 4.0 14.0 0.00 0.00 0.00 53 1003.8
20260505205025 69 151 5.0 15.0 0.00 0.00 0.00 54 1003.8
20260505204539 69 151 6.0 15.0 0.00 0.00 0.00 53 1003.8
20260505204025 69 181 3.0 14.0 0.00 0.00 0.00 53 1003.9
20260505203525 70 0 4.0 14.0 0.00 0.00 0.00 53 1004.0
20260505203036 70 165 5.0 14.0 0.00 0.00 0.00 52 1003.9
20260505202524 70 157 2.0 14.0 0.00 0.00 0.00 54 1003.9
20260505202025 70 0 3.0 14.0 0.00 0.00 0.00 52 1003.8
20260505201541 71 0 3.0 11.0 0.00 0.00 0.00 52 1004.0
20260505201026 71 132 4.0 11.0 0.00 0.00 0.00 52 1004.1
20260505200525 71 0 2.0 15.0 0.00 0.00 0.00 51 1004.2
20260505200047 71 0 5.0 15.0 0.00 0.00 0.00 51 1004.2
20260505195524 71 136 3.0 12.0 0.00 0.00 0.00 51 1004.2
20260505195024 71 241 2.0 12.0 0.00 0.00 0.00 52 1004.3
20260505194540 71 205 4.0 12.0 0.00 0.00 0.00 51 1004.3
20260505194024 72 222 1.0 11.0 0.00 0.00 0.00 51 1004.4
20260505193524 72 172 3.0 10.0 0.00 0.00 0.00 52 1004.6
20260505193038 72 184 2.0 11.0 0.00 0.00 0.00 49 1004.4
20260505192524 73 143 2.0 15.0 0.00 0.00 0.00 51 1004.5
20260505192024 72 152 3.0 15.0 0.00 0.00 0.00 51 1004.5
20260505191543 72 0 4.0 15.0 0.00 0.00 0.00 51 1004.7
20260505191024 71 211 1.0 12.0 0.00 0.00 0.00 52 1004.8
20260505190524 70 155 1.0 11.0 0.00 0.00 0.00 53 1005.0
20260505190040 70 169 4.0 14.0 0.00 0.00 0.00 52 1005.0
20260505185525 71 201 5.0 14.0 0.00 0.00 0.00 51 1005.0
20260505185028 71 206 4.0 11.0 0.00 0.00 0.00 52 1004.9
20260505184541 70 180 2.0 12.0 0.00 0.00 0.00 52 1005.1
20260505184025 70 155 3.0 12.0 0.00 0.00 0.00 53 1005.1
20260505183524 70 113 5.0 12.0 0.00 0.00 0.00 53 1005.2
20260505183050 70 207 4.0 12.0 0.00 0.00 0.00 54 1005.2
20260505182524 71 193 3.0 13.0 0.00 0.00 0.00 51 1005.3
20260505182024 71 155 2.0 13.0 0.00 0.00 0.00 52 1005.3
20260505181539 72 148 2.0 10.0 0.00 0.00 0.00 52 1005.4
20260505181026 72 0 1.0 10.0 0.00 0.00 0.00 52 1005.2
20260505180524 72 161 2.0 12.0 0.00 0.00 0.00 51 1005.3
20260505180041 71 0 2.0 13.0 0.00 0.00 0.00 52 1005.1
20260505175524 71 162 4.0 13.0 0.00 0.00 0.00 50 1005.2
20260505175027 72 149 5.0 13.0 0.00 0.00 0.00 50 1005.3
20260505174544 73 150 0.0 11.0 0.00 0.00 0.00 50 1005.3
20260505174025 73 180 2.0 11.0 0.00 0.00 0.00 48 1005.5
20260505173525 73 174 3.0 11.0 0.00 0.00 0.00 47 1005.5
20260505173042 74 134 1.0 11.0 0.00 0.00 0.00 46 1005.5
20260505172525 75 0 0.0 11.0 0.00 0.00 0.00 49 1005.7
20260505172024 74 112 1.0 10.0 0.00 0.00 0.00 49 1005.8
20260505171546 74 155 0.0 10.0 0.00 0.00 0.00 49 1005.9
20260505171025 74 177 2.0 10.0 0.00 0.00 0.00 49 1005.9
20260505170524 74 125 1.0 8.0 0.00 0.00 0.00 47 1006.0
20260505170039 74 156 1.0 10.0 0.00 0.00 0.00 48 1006.1
20260505165524 74 227 3.0 13.0 0.00 0.00 0.00 47 1006.2
20260505165024 73 187 2.0 13.0 0.00 0.00 0.00 48 1006.5
20260505164537 73 137 3.0 8.0 0.00 0.00 0.00 48 1006.4
20260505164024 72 194 1.0 10.0 0.00 0.00 0.00 50 1006.4
20260505163525 72 151 2.0 10.0 0.00 0.00 0.00 50 1006.7
20260505163035 72 175 2.0 9.0 0.00 0.00 0.00 50 1006.9
20260505162524 71 0 1.0 11.0 0.00 0.00 0.00 51 1007.1
20260505162025 71 176 0.0 11.0 0.00 0.00 0.00 52 1007.0
20260505161543 70 161 1.0 8.0 0.00 0.00 0.00 52 1007.0
20260505161023 70 112 3.0 8.0 0.00 0.00 0.00 53 1007.2
20260505160527 69 0 1.0 4.0 0.00 0.00 0.00 55 1007.2
20260505153035 64 0 0.0 8.0 0.00 0.00 0.00 62 1007.9
20260505152525 63 136 1.0 8.0 0.00 0.00 0.00 63 1008.0
20260505152029 63 0 1.0 8.0 0.00 0.00 0.00 65 1008.1
20260505151536 62 137 1.0 8.0 0.00 0.00 0.00 66 1008.2
20260505151026 61 0 0.0 7.0 0.00 0.00 0.00 67 1008.2
20260505150530 60 0 0.0 9.0 0.00 0.00 0.00 68 1008.3
20260505140526 64 0 0.0 4.0 0.00 0.00 0.00 58 1007.5
20260505125026 60 0 0.0 4.0 0.00 0.00 0.00 65 1007.9
20260505124540 59 0 0.0 4.0 0.00 0.00 0.00 66 1007.9
20260505124027 59 167 0.0 3.0 0.00 0.00 0.00 66 1007.9
20260505123526 58 0 0.0 4.0 0.00 0.00 0.00 67 1008.0
20260505123042 58 0 0.0 5.0 0.00 0.00 0.00 69 1008.1
20260505122526 57 0 0.0 5.0 0.00 0.00 0.00 69 1008.1
20260505122027 57 0 0.0 6.0 0.00 0.00 0.00 69 1008.0
20260505121539 56 0 1.0 6.0 0.00 0.00 0.00 71 1008.1
20260505121026 56 0 0.0 2.0 0.00 0.00 0.00 72 1008.1
20260505120526 55 0 0.0 4.0 0.00 0.00 0.00 74 1008.2
20260505120046 55 171 0.0 4.0 0.00 0.00 0.00 74 1008.2
20260505115529 54 0 0.0 5.0 0.00 0.00 0.00 75 1008.3
20260505115027 53 0 0.0 5.0 0.00 0.00 0.00 77 1008.4
20260505114545 53 228 0.0 8.0 0.00 0.00 0.00 79 1008.5
20260505114024 52 0 0.0 8.0 0.00 0.00 0.00 79 1008.6
20260505113526 51 248 0.0 5.0 0.00 0.00 0.00 82 1008.8
20260505113039 50 0 0.0 4.0 0.00 0.00 0.00 85 1008.4
20260505112526 49 0 0.0 4.0 0.00 0.00 0.00 87 1008.5
20260505112026 48 0 0.0 0.0 0.00 0.00 0.00 90 1008.4
20260505111538 46 0 0.0 0.0 0.00 0.00 0.00 91 1008.5
20260505111026 46 0 0.0 0.0 0.00 0.00 0.00 91 1008.5
20260505110523 45 0 0.0 0.0 0.00 0.00 0.00 91 1008.6
20260505102026 44 0 0.0 0.0 0.00 0.00 0.00 91 1008.5
20260505101549 43 0 0.0 0.0 0.00 0.00 0.00 91 1008.4
20260505101026 43 0 0.0 0.0 0.00 0.00 0.00 91 1008.5
20260505100525 43 0 0.0 0.0 0.00 0.00 0.00 91 1008.5
20260505100038 43 0 0.0 0.0 0.00 0.00 0.00 91 1008.4
20260505095526 43 0 0.0 0.0 0.00 0.00 0.00 91 1008.3
20260505095029 43 0 0.0 0.0 0.00 0.00 0.00 91 1008.4
20260505094540 43 0 0.0 0.0 0.00 0.00 0.00 90 1008.4
20260505094026 43 0 0.0 0.0 0.00 0.00 0.00 91 1008.3
20260505093526 43 0 0.0 0.0 0.00 0.00 0.00 90 1008.4
20260505093035 43 0 0.0 0.0 0.00 0.00 0.00 90 1008.3
20260505092527 43 0 0.0 0.0 0.00 0.00 0.00 90 1008.3
20260505092026 43 0 0.0 0.0 0.00 0.00 0.00 90 1008.3
20260505091537 43 0 0.0 0.0 0.00 0.00 0.00 90 1008.4
20260505091027 43 0 0.0 0.0 0.00 0.00 0.00 89 1008.4
20260505090525 43 0 0.0 0.0 0.00 0.00 0.00 89 1008.4
20260505090042 43 0 0.0 0.0 0.00 0.00 0.00 89 1008.6
20260505085529 43 0 0.0 0.0 0.00 0.00 0.00 89 1008.6
20260505085029 43 0 0.0 0.0 0.00 0.00 0.00 89 1008.6